Hourly Data Report for October 10, 2013

All times are specified in Local Standard Time (LST). Add 1 hour to adjust for Daylight Saving Time where and when it is observed.

HALL BEACH A
NUNAVUT

68°46'33.000" N
81°14'33.000" W
9.10 m
2402354
71293
YUX

Download Data

Hourly Data (October 2013)
Hourly Data Report for October 10, 2013
Temp Definition
°C
Dew Point Temp Definition
°C
Rel Hum Definition
%
Wind Dir Definition
10's deg

Wind Spd Definition
km/h
Visibility Definition
km
Stn Press Definition
kPa
Hmdx Definition


Wind Chill Definition


Weather Definition


TIME
00:00 Legend Double Dagger -9.3 -10.5 91 31 21 16.1 101.57   -17 LegendNANA
01:00 Legend Double Dagger -9.2 -10.4 91 32 17 16.1 101.60   -16 LegendNANA
02:00 Legend Double Dagger -9.1 -10.3 91 31 18 16.1 101.65   -16 LegendNANA
03:00 Legend Double Dagger -9.1 -10.0 93 31 18 16.1 101.67   -16 LegendNANA
04:00 Legend Double Dagger -9.5 -10.4 93 30 15 16.1 101.69   -16 LegendNANA
05:00 Legend Double Dagger -9.6 -10.7 92 26 11 16.1 101.73   -15 LegendNANA
06:00 Legend Double Dagger -8.6 -9.7 92 31 13 16.1 101.74   -15 LegendNANA
07:00 Legend Double Dagger -9.3 -10.4 92 30 9 16.1 101.78   -14 LegendNANA
08:00 Legend Double Dagger -9.9 -11.0 92 27 8 16.1 101.80   -14 LegendNANA
09:00 Legend Double Dagger -8.9 -10.0 92 31 11 16.1 101.80   -14 LegendNANA
10:00 Legend Double Dagger -8.4 -9.3 93 29 9 16.1 101.80   -13 LegendNANA
11:00 Legend Double Dagger -7.3 -8.5 91 29 11 16.1 101.84   -12 LegendNANA
12:00 Legend Double Dagger -7.0 -8.8 87 32 5 16.1 101.85   -10 LegendNANA
13:00 Legend Double Dagger -6.5 -8.7 85 LegendMM 4 16.1 101.88   -8 LegendNANA
14:00 Legend Double Dagger -6.3 -8.6 84 31 4 16.1 101.91   -8 LegendNANA
15:00 Legend Double Dagger -6.6 -8.9 84 4 5 16.1 101.92   -9 LegendNANA
16:00 Legend Double Dagger -6.9 -8.7 87 3 5 4.8 101.94   -9 LegendNANA
17:00 Legend Double Dagger -7.5 -8.7 91   0 14.5 101.94     LegendNANA
18:00 Legend Double Dagger -8.7 -9.8 92 34 4 16.1 101.96   -11 LegendNANA
19:00 Legend Double Dagger -8.8 -9.7 93 24 5 16.1 101.98   -12 LegendNANA
20:00 Legend Double Dagger -8.6 -9.5 93 23 8 16.1 102.00   -13 LegendNANA
21:00 Legend Double Dagger -8.4 -9.5 92 25 8 16.1 102.00   -13 LegendNANA
22:00 Legend Double Dagger -9.2 -10.0 94 28 4 16.1 102.02   -11 LegendNANA
23:00 Legend Double Dagger -9.3 -10.4 92 13 4 16.1 102.03   -12 LegendNANA

Notes on Data Quality.

Legend

  • E = Estimated
  • M = Missing
  • NA = Not Available
  • ‡ = Partner data that is not subject to review by the National Climate Archives
Date modified: